Regional Weather Roundup
Issued by NWS

Home | Current Version | Previous Version | Text Only | Print | Product List | Glossary On
Versions: 1 2 3 4 5 6 7 8 9 10 11 12 13 14 15 16 17 18 19 20 21 22 23 24 25 26 27 28 29 30 31 32 33 34 35 36 37 38 39 40 41 42 43 44 45 46 47 48 49 50
000
ASUS45 KREV 062210
RWRNV
NEVADA REGIONAL WEATHER ROUNDUP
NATIONAL WEATHER SERVICE RENO NV
200 PM PST TUE DEC 06 2016

NOTE: "FAIR" INDICATES FEW OR NO CLOUDS BELOW 12,000 FEET WITH NO
SIGNIFICANT WEATHER AND/OR OBSTRUCTIONS TO VISIBILITY.

NVZ001-003-004-062300-
WESTERN NEVADA

CITY           SKY/WX    TMP DP  RH WIND       PRES   REMARKS
RENO           PTSUNNY   44  17  33 NW17G25   29.88R
CARSON CITY    CLOUDY    43  16  33 W13G20    29.90R
MINDEN         FAIR      46   3  17 W13G23    29.85R
PYRAMID LAKE     N/A     41 N/A N/A NW15        N/A
FALLON         PTSUNNY   43  16  33 N16       29.87F
LOVELOCK       LGT RAIN  40  18  41 W17G26    29.89R
HAWTHORNE        N/A    N/A N/A N/A MISG        N/A
$$

NVZ002-CAZ072-073-062300-
NORTHERN AND CENTRAL SIERRA

CITY           SKY/WX    TMP DP  RH WIND       PRES   REMARKS
S. LAKE TAHOE  MOSUNNY   36  11  35 SW9       29.86R
TRUCKEE        PTSUNNY   30  18  59 SW12G17   29.89S
SQUAW VLY 8000   N/A     21  19  93 SW14        N/A
SUSANVILLE     LGT SNOW  32  28  86 NW17G23   29.92R
MAMMOTH LAKES  FAIR      41  -5  14 W25G47    29.84F
BRIDGEPORT       N/A     38   1  21 SW22G29   29.79F
$$

NVZ030-031-036-062300-
NORTHERN NEVADA

CITY           SKY/WX    TMP DP  RH WIND       PRES   REMARKS
ELKO           PTSUNNY   32  15  49 W18       29.81R
WINNEMUCCA     PTSUNNY   29  24  82 SE5       29.88S
WENDOVER       PTSUNNY   28   9  43 CALM      29.81R
$$

NVZ035-037-062300-
CENTRAL NEVADA

CITY           SKY/WX    TMP DP  RH WIND       PRES   REMARKS
ELY            SUNNY     37   8  30 NW18G28   29.72R
EUREKA           N/A     31  10  41 NW15      29.79R
$$

NVZ013-014-062300-
SOUTH CENTRAL NEVADA

CITY           SKY/WX    TMP DP  RH WIND       PRES   REMARKS
TONOPAH        SUNNY     51   2  13 NW16G25   29.75F
$$

NVZ017-020-022-062300-
SOUTHERN NEVADA

CITY           SKY/WX    TMP DP  RH WIND       PRES   REMARKS
LAS VEGAS      PTSUNNY   60  18  19 NE6       29.76F
N. LAS VEGAS   MOSUNNY   59  18  20 CALM      29.76F
NELLIS AFB     NOT AVBL
HENDERSON      MOSUNNY   61  20  20 N6        29.78F
MERCURY        SUNNY     57  18  21 SW15      29.76F
$$



USA.gov is the U.S. government's official web portal to all federal, state and local government web resources and services.